Location: Peterborough
(44.3091°N, 78.3197°W)
Time: 16:27:38
(UTC-04:00)

Explorer 7 - Pass Details

Date: 27 March 2023
Orbit: 477 x 653 km, 50.3° (Epoch: 04 June)

Event Time Altitude Azimuth Distance (km) Brightness Sun altitude
Rises 21:27:39 0° 295° (WNW) 2,793 12.0 -20.3°
Reaches altitude 10° 21:30:03 10° 301° (WNW) 1,859 10.7 -20.7°
Maximum altitude 21:34:10 51° 18° (NNE) 685 7.3 -21.4°
Enters shadow 21:34:39 48° 44° (NE) 710 7.2 -21.4°
Drops below altitude 10° 21:38:03 10° 95° (E) 1,747 - -22.0°
Sets 21:40:14 0° 101° (E) 2,605 - -22.3°
